User: anonymous   Login
Location: Krasnoyarskiy Pitomnik
(51.1333°N, 71.6167°E)
Time: 17:11:38
(UTC+00:00)
Language:

NOSS 8 (F) - Orbit

View from above orbital plane
View from above orbital plane
View from above satellite
View from above satellite

Ground track
Ground track

The orbit data is extracted from the following two-line orbital elements,

1 18010U 87043F   22021.76918782  .00002418  00000-0  18622-3 0  9994
2 18010  63.3000  37.2886 0948858  74.1827 296.1639 13.47854502125945
Epoch (UTC): 21 January 2022 18:27:37
Eccentricity: 0.0948858
inclination: 63.3000°
perigee height: 372 km
apogee height: 1788 km
right ascension of ascending node: 37.2886°
argument of perigee: 74.1827°
revolutions per day: 13.47854502
mean anomaly at epoch: 296.1639°
orbit number at epoch: 12594

The dashed part of the orbit path shows where the satellite is in the earth's shadow,  

DLR